Home > Weather > Panama City > Past weeks

Flag for USA Past Weather in Panama City, Florida, USA — Yesterday and Last 2 Weeks

Now
81 °F

Sunny.


Feels Like: 82 °F
Forecast: 65 / 85 °F
Wind: 7 mph from Southwest

Location: Tyndall Air Force Base

Current Time: May 24, 2016 at 6:31:35 PM

Latest Report: May 24, 2016 at 5:58 PM


Visibility: 10 mi

Pressure: 30.10 "Hg

Humidity: 57%

Dew Point: 64 °F

Location of Panama CityLocation

Past Weather in Panama City — Graph

°F

Panama City Temperature Yesterday

Maximum temperature yesterday: 82 °F (at 1:58 PM)
Minimum temperature yesterday: 59 °F (at 5:58 AM)
Average temperature yesterday: 73 °F

High & Low Weather Summary for the Past Weeks

 TemperatureHumidityPressure
High86 °F (May 16, 12:58 PM)100% (May 11, 5:53 AM)30.19 "Hg (May 11, 5:53 AM)
Low59 °F (May 23, 5:58 AM)34% (May 23, 2:58 PM)29.91 "Hg (May 18, 4:03 AM)
Average74 °F78%30.03 "Hg
* Reported May 9 4:58 PM — May 24 4:58 PM, Panama City, Weather by CustomWeather, © 2016

Note: Actual official high and low records may vary slightly from our data, if they occured in-between our weather recording intervals... More about our weather records

Advertising

Panama City Weather History for the Previous 24 Hours

Scroll right to see more
 ConditionsComfort  
Time TempWeatherWind HumidityBarometerVisibility
4:58 PM
Tue, May 24
82 °FSunny.10 mph52%30.10 "Hg10 mi
3:58 PM83 °FSunny.10 mph54%30.11 "Hg10 mi
2:58 PM83 °FSunny.12 mph55%30.12 "Hg10 mi
1:58 PM84 °FSunny.12 mph50%30.12 "Hg10 mi
12:58 PM85 °FScattered clouds.5 mph38%30.13 "Hg10 mi
11:58 AM85 °FSunny.No wind37%30.14 "Hg10 mi
10:58 AM83 °FSunny.5 mph42%30.14 "Hg10 mi
9:58 AM81 °FSunny.7 mph48%30.13 "Hg10 mi
8:58 AM77 °FSunny.7 mph55%30.12 "Hg10 mi
6:58 AM66 °FSunny.3 mph94%30.09 "Hg10 mi
5:58 AM62 °FSunny.No wind97%30.07 "Hg7 mi
4:58 AM63 °FClear.No wind95%30.04 "Hg9 mi
3:58 AM63 °FClear.No wind92%30.03 "Hg10 mi
2:58 AM63 °FClear.No wind92%30.03 "Hg10 mi
1:58 AM63 °FClear.No wind92%30.02 "Hg10 mi
12:58 AM64 °FClear.No wind87%30.03 "Hg10 mi
11:58 PM
Mon, May 23
64 °FMild.N/A89%30.03 "HgN/A
10:58 PM66 °FClear.No wind84%30.03 "Hg10 mi
9:58 PM66 °FClear.2 mph83%30.02 "Hg10 mi
8:58 PM71 °FClear.No wind71%30.01 "Hg10 mi
7:58 PM74 °FClear.6 mph60%29.98 "Hg10 mi
6:58 PM78 °FSunny.8 mph50%29.96 "Hg10 mi
Weather by CustomWeather, © 2016

See weather overviewHow to use our weather pages